Temp
-7 -7 -6 -6 -6 -6 -6 -6 -6 -5 -5 -5 -5 -5 -5 -5 -5 -5 -5 -5 -4 -5 -5 -5 -5 -5 -5 -6 -6 -7 -6 -9 -8 -9 -9 -8 -9 -8 -7 -7 -6 -6 -7 -7 -7
-7 -7 -6 -6 -6 -6 -6 -6 -6 -6 -5 -5 -5 -5 -5 -5 -5 -5 -5 -5 -4 -5 -5 -5 -5 -5 -6 -6 -6 -6 -7 -9 -9 -9 -8 -7 -8 -9 -8 -7 -7 -7 -7 -7 -7
-7 -7 -6 -6 -6 -6 -6 -6 -6 -6 -5 -5 -5 -5 -5 -5 -5 -5 -5 -5 -5 -5 -5 -5 -5 -6 -6 -6 -6 -7 -8 -9 -10 -9 -6 -7 -8 -8 -7 -7 -7 -8 -8 -7 -7
-7 -7 -6 -6 -6 -6 -6 -6 -6 -6 -6 -5 -5 -5 -5 -5 -5 -5 -5 -5 -5 -5 -5 -5 -6 -6 -6 -6 -7 -7 -7 -10 -9 -7 -7 -8 -8 -8 -7 -8 -8 -8 -8 -8 -8
-7 -7 -7 -6 -6 -6 -6 -6 -6 -6 -6 -6 -6 -5 -5 -5 -5 -5 -5 -5 -5 -5 -5 -6 -6 -6 -6 -7 -7 -7 -8 -9 -6 -5 -7 -8 -8 -8 -8 -8 -8 -8 -8 -8 -9
-7 -7 -7 -7 -6 -6 -6 -6 -6 -6 -6 -6 -6 -6 -5 -5 -5 -5 -5 -5 -5 -5 -6 -6 -6 -6 -6 -7 -7 -7 -8 -9 -4 -5 -7 -8 -8 -8 -8 -8 -8 -8 -8 -9 -9
-7 -7 -7 -7 -7 -7 -7 -7 -7 -6 -6 -6 -6 -6 -6 -6 -5 -5 -5 -5 -5 -6 -6 -6 -6 -7 -7 -7 -7 -7 -7 -7 -6 -6 -8 -9 -9 -9 -8 -8 -8 -9 -9 -9 -9
-7 -7 -7 -7 -7 -7 -7 -7 -7 -7 -7 -7 -6 -6 -6 -6 -6 -6 -6 -6 -6 -6 -6 -6 -6 -6 -7 -7 -7 -8 -8 -8 -8 -8 -8 -9 -8 -9 -9 -9 -9 -9 -9 -10 -10
-7 -7 -7 -7 -7 -7 -7 -7 -7 -7 -7 -7 -7 -7 -6 -6 -6 -6 -6 -6 -6 -6 -6 -7 -7 -7 -7 -7 -8 -8 -8 -8 -7 -8 -9 -9 -7 -9 -9 -9 -9 -9 -10 -10 -10
-7 -7 -7 -7 -7 -7 -7 -7 -7 -7 -7 -7 -7 -7 -7 -7 -7 -6 -6 -6 -6 -6 -7 -7 -7 -7 -7 -8 -8 -9 -8 -10 -10 -8 -8 -9 -7 -9 -9 -9 -10 -10 -10 -10 -10
-8 -8 -7 -7 -7 -7 -7 -7 -7 -7 -7 -7 -7 -6 -7 -7 -7 -7 -7 -7 -7 -7 -7 -7 -7 -7 -8 -8 -9 -10 -10 -11 -9 -7 -8 -8 -8 -9 -9 -10 -10 -10 -10 -10 -10
-8 -8 -8 -8 -8 -8 -8 -8 -8 -7 -7 -7 -7 -7 -7 -7 -7 -7 -7 -7 -7 -8 -8 -7 -8 -8 -9 -9 -8 -9 -10 -11 -8 -8 -9 -8 -8 -9 -9 -10 -10 -10 -10 -10 -10
-9 -9 -9 -8 -8 -8 -8 -8 -8 -8 -8 -8 -8 -8 -8 -8 -8 -7 -8 -8 -8 -8 -8 -9 -10 -9 -9 -9 -9 -9 -9 -11 -9 -9 -9 -9 -9 -9 -9 -9 -10 -10 -11 -11 -11
-9 -9 -9 -9 -9 -9 -9 -9 -9 -9 -9 -8 -8 -8 -8 -9 -9 -8 -9 -9 -9 -9 -9 -9 -10 -9 -9 -9 -9 -10 -9 -11 -9 -9 -9 -10 -11 -9 -9 -10 -10 -10 -11 -11 -11
-9 -9 -9 -9 -9 -9 -9 -9 -9 -9 -10 -10 -8 -9 -9 -9 -9 -9 -9 -9 -9 -10 -10 -10 -10 -10 -10 -10 -11 -10 -12 -11 -10 -10 -11 -10 -10 -12 -9 -10 -10 -10 -11 -11 -11
-9 -9 -9 -9 -9 -9 -9 -10 -10 -10 -11 -10 -9 -9 -10 -10 -9 -9 -10 -10 -10 -10 -10 -11 -13 -10 -10 -12 -10 -12 -12 -13 -11 -10 -11 -12 -11 -12 -11 -11 -10 -10 -11 -11 -12
-10 -10 -10 -10 -10 -10 -10 -11 -11 -11 -12 -12 -10 -10 -10 -10 -10 -10 -10 -10 -11 -11 -11 -11 -11 -10 -11 -11 -10 -11 -11 -13 -12 -12 -11 -12 -12 -12 -11 -11 -10 -11 -11 -11 -11
-11 -11 -11 -11 -11 -11 -11 -11 -12 -13 -13 -11 -11 -11 -11 -11 -11 -11 -11 -11 -11 -11 -13 -12 -12 -12 -11 -11 -13 -11 -13 -12 -12 -11 -11 -11 -12 -12 -11 -11 -11 -11 -12 -12 -12
-11 -11 -11 -11 -11 -11 -12 -12 -14 -12 -11 -12 -12 -12 -12 -13 -12 -13 -12 -13 -14 -12 -12 -13 -12 -13 -13 -12 -12 -13 -12 -13 -12 -12 -11 -12 -12 -12 -12 -12 -12 -12 -12 -12 -12
-11 -11 -11 -11 -12 -12 -12 -13 -13 -12 -12 -12 -13 -13 -14 -13 -14 -14 -14 -14 -14 -13 -12 -13 -13 -13 -13 -12 -12 -12 -13 -12 -12 -13 -12 -11 -12 -12 -12 -12 -12 -12 -12 -12 -13
-12 -12 -12 -12 -12 -12 -13 -15 -13 -13 -13 -13 -13 -13 -13 -12 -12 -13 -13 -13 -13 -13 -13 -13 -14 -13 -13 -13 -13 -13 -13 -13 -13 -12 -12 -12 -11 -12 -13 -13 -12 -12 -13 -13 -13
-12 -12 -13 -13 -13 -13 -14 -13 -13 -13 -13 -13 -13 -13 -13 -13 -13 -13 -14 -13 -13 -14 -14 -14 -14 -14 -14 -13 -13 -13 -13 -13 -14 -13 -13 -13 -13 -12 -12 -13 -13 -13 -13 -13 -13
-13 -13 -13 -13 -14 -14 -14 -14 -14 -14 -14 -14 -14 -14 -14 -14 -14 -15 -14 -13 -14 -14 -14 -14 -14 -15 -14 -13 -14 -13 -13 -13 -14 -14 -13 -13 -12 -12 -13 -13 -13 -13 -13 -13 -13
-13 -13 -14 -14 -14 -14 -14 -14 -14 -14 -14 -14 -14 -14 -14 -14 -14 -15 -14 -14 -14 -14 -15 -15 -14 -15 -15 -13 -13 -13 -14 -14 -14 -14 -15 -14 -14 -14 -14 -14 -14 -14 -14 -14 -14
-14 -14 -14 -14 -14 -14 -14 -14 -14 -14 -15 -14 -15 -14 -15 -15 -15 -15 -15 -15 -14 -14 -15 -15 -14 -14 -14 -14 -14 -15 -15 -14 -15 -15 -15 -15 -14 -14 -14 -14 -14 -14 -15 -14 -14
-14 -14 -14 -14 -14 -14 -14 -14 -14 -14 -15 -14 -15 -15 -15 -15 -15 -16 -15 -15 -15 -15 -15 -15 -15 -15 -15 -14 -15 -15 -15 -15 -16 -16 -15 -16 -16 -15 -15 -15 -15 -15 -15 -15 -15
-14 -14 -14 -14 -14 -15 -15 -15 -15 -15 -15 -15 -15 -15 -15 -14 -15 -15 -15 -15 -15 -16 -16 -15 -16 -16 -16 -15 -15 -16 -15 -15 -15 -16 -16 -16 -15 -15 -16 -16 -16 -15 -15 -15 -15
Height
5858 5859 5861 5864 5866 5868 5870 5872 5874 5875 5876 5877 5877 5877 5877 5877 5879 5880 5882 5884 5885 5886 5887 5888 5891 5894 5895 5897 5899 5901 5905 5914 5923 5921 5907 5909 5911 5910 5903 5908 5907 5905 5906 5907 5908
5855 5856 5859 5861 5864 5866 5868 5869 5871 5872 5873 5875 5875 5876 5875 5876 5877 5878 5880 5881 5883 5884 5885 5887 5889 5891 5893 5895 5897 5898 5903 5914 5919 5915 5896 5904 5906 5905 5904 5906 5906 5906 5907 5907 5907
5853 5855 5857 5859 5862 5864 5865 5866 5868 5869 5871 5872 5873 5874 5874 5874 5876 5877 5877 5879 5881 5882 5884 5885 5887 5889 5891 5892 5894 5897 5900 5912 5907 5896 5893 5902 5901 5898 5903 5904 5904 5906 5907 5907 5908
5851 5853 5855 5857 5859 5861 5862 5864 5865 5866 5867 5869 5870 5871 5872 5873 5875 5874 5875 5877 5879 5880 5882 5883 5885 5886 5888 5890 5892 5894 5897 5904 5892 5889 5895 5900 5898 5897 5901 5902 5904 5905 5906 5906 5905
5849 5851 5852 5854 5856 5858 5859 5861 5862 5863 5864 5866 5867 5868 5870 5871 5872 5872 5874 5875 5876 5878 5879 5881 5882 5884 5886 5888 5889 5890 5892 5893 5884 5887 5891 5895 5896 5896 5898 5900 5901 5903 5903 5904 5903
5847 5849 5850 5852 5853 5855 5856 5857 5858 5860 5861 5862 5864 5865 5867 5868 5869 5870 5871 5872 5873 5875 5876 5878 5879 5881 5882 5884 5886 5887 5888 5888 5877 5886 5888 5891 5893 5894 5895 5897 5898 5900 5901 5901 5901
5845 5846 5848 5849 5850 5851 5853 5854 5855 5856 5857 5858 5860 5862 5863 5865 5866 5867 5868 5870 5871 5872 5873 5874 5876 5878 5879 5880 5881 5882 5883 5882 5877 5884 5886 5888 5889 5889 5892 5894 5896 5897 5899 5900 5900
5843 5844 5845 5847 5848 5849 5850 5851 5851 5853 5854 5855 5856 5857 5859 5860 5862 5864 5865 5867 5868 5868 5869 5870 5872 5874 5874 5875 5877 5878 5879 5879 5876 5879 5882 5887 5880 5884 5888 5890 5893 5895 5896 5897 5897
5841 5842 5843 5844 5845 5846 5846 5847 5847 5849 5850 5851 5853 5854 5855 5856 5858 5859 5861 5863 5863 5864 5865 5866 5867 5869 5871 5873 5873 5873 5875 5876 5873 5874 5875 5882 5870 5883 5884 5887 5889 5891 5893 5894 5895
5838 5840 5841 5841 5842 5842 5842 5843 5843 5844 5846 5846 5848 5850 5851 5852 5853 5855 5856 5858 5858 5859 5860 5861 5863 5865 5867 5868 5870 5872 5873 5878 5870 5869 5869 5871 5868 5879 5880 5882 5884 5886 5887 5889 5891
5836 5836 5837 5838 5838 5838 5839 5839 5841 5842 5841 5842 5843 5844 5845 5846 5847 5849 5850 5852 5853 5854 5854 5855 5858 5860 5862 5864 5867 5873 5874 5873 5860 5862 5867 5863 5867 5869 5873 5875 5878 5880 5881 5883 5885
5832 5832 5833 5834 5834 5835 5835 5836 5837 5838 5838 5837 5838 5838 5840 5840 5841 5842 5844 5846 5847 5848 5849 5850 5852 5855 5857 5858 5859 5860 5863 5861 5857 5861 5862 5861 5860 5862 5865 5867 5870 5872 5874 5876 5878
5827 5827 5828 5829 5829 5830 5831 5832 5832 5833 5833 5832 5832 5833 5834 5835 5835 5836 5839 5839 5841 5842 5844 5845 5850 5849 5850 5850 5853 5855 5857 5854 5855 5856 5854 5856 5854 5856 5857 5859 5860 5863 5866 5868 5870
5822 5822 5823 5824 5825 5824 5825 5827 5827 5828 5829 5826 5827 5828 5829 5830 5830 5831 5832 5834 5835 5837 5838 5839 5841 5841 5844 5846 5847 5849 5851 5849 5846 5851 5850 5851 5851 5847 5850 5850 5853 5856 5858 5860 5862
5819 5819 5819 5820 5819 5819 5821 5822 5822 5823 5826 5818 5822 5823 5823 5825 5824 5826 5827 5827 5829 5831 5833 5836 5835 5834 5838 5840 5840 5845 5847 5844 5839 5843 5845 5840 5844 5838 5840 5843 5845 5847 5850 5852 5854
5814 5814 5815 5814 5814 5815 5816 5817 5818 5821 5820 5815 5816 5817 5818 5820 5819 5819 5822 5822 5823 5825 5826 5829 5827 5829 5833 5834 5833 5837 5839 5838 5835 5837 5836 5842 5838 5832 5832 5833 5838 5841 5842 5843 5844
5810 5810 5810 5809 5809 5809 5811 5812 5814 5815 5810 5811 5811 5812 5813 5814 5814 5814 5816 5817 5819 5820 5821 5823 5822 5823 5825 5826 5828 5830 5831 5833 5831 5830 5829 5838 5837 5833 5820 5828 5833 5835 5836 5837 5837
5806 5805 5805 5804 5804 5805 5806 5807 5808 5806 5805 5801 5806 5807 5808 5809 5809 5809 5810 5811 5813 5814 5818 5822 5822 5817 5816 5820 5825 5822 5826 5828 5829 5831 5831 5830 5825 5816 5821 5824 5826 5826 5827 5828 5827
5802 5801 5800 5800 5800 5800 5801 5801 5802 5797 5800 5801 5803 5802 5803 5804 5806 5804 5805 5807 5810 5807 5811 5816 5818 5811 5809 5812 5815 5818 5817 5823 5821 5822 5824 5818 5816 5814 5815 5816 5817 5817 5818 5818 5817
5798 5796 5796 5795 5794 5795 5795 5795 5792 5793 5793 5795 5797 5795 5802 5803 5800 5801 5802 5802 5804 5800 5802 5805 5806 5804 5801 5804 5805 5808 5814 5815 5816 5815 5816 5818 5806 5799 5804 5806 5807 5807 5808 5808 5808
5793 5792 5790 5789 5789 5789 5790 5789 5785 5787 5787 5788 5788 5789 5792 5795 5792 5795 5800 5792 5791 5792 5794 5797 5797 5802 5795 5799 5800 5802 5801 5803 5807 5808 5805 5806 5804 5795 5792 5796 5798 5797 5797 5797 5797
5788 5788 5786 5784 5785 5784 5783 5781 5782 5780 5781 5781 5781 5781 5781 5782 5785 5788 5791 5775 5781 5784 5788 5786 5786 5792 5795 5788 5791 5793 5793 5795 5795 5801 5800 5800 5789 5784 5783 5785 5785 5786 5786 5786 5786
5785 5784 5782 5781 5781 5779 5777 5776 5776 5775 5774 5774 5773 5774 5773 5774 5775 5775 5772 5777 5777 5777 5776 5777 5780 5781 5785 5783 5784 5784 5786 5784 5785 5785 5787 5789 5779 5774 5774 5777 5774 5776 5776 5776 5775
5784 5782 5780 5778 5777 5775 5773 5771 5770 5769 5767 5766 5766 5766 5765 5766 5765 5765 5763 5764 5766 5766 5767 5767 5770 5771 5777 5772 5768 5767 5770 5773 5775 5775 5779 5777 5766 5768 5766 5765 5766 5766 5765 5763 5762
5782 5780 5778 5777 5773 5771 5769 5767 5764 5762 5761 5759 5757 5756 5756 5756 5755 5754 5753 5751 5755 5756 5756 5757 5757 5756 5757 5761 5758 5761 5761 5764 5766 5768 5765 5760 5753 5757 5757 5755 5755 5755 5753 5751 5750
5781 5779 5776 5773 5769 5766 5763 5760 5757 5754 5753 5749 5749 5747 5746 5744 5745 5744 5741 5744 5742 5741 5745 5745 5746 5745 5745 5748 5748 5748 5751 5752 5752 5752 5753 5749 5745 5747 5748 5745 5744 5743 5741 5739 5738
5776 5773 5770 5767 5762 5759 5756 5751 5747 5745 5741 5740 5738 5736 5733 5732 5732 5731 5731 5730 5731 5731 5730 5733 5733 5733 5734 5730 5734 5735 5736 5738 5739 5740 5738 5736 5734 5738 5735 5734 5732 5731 5730 5728 5726
Wind_Speed
20 20 20 20 22 24 23 21 21 19 18 16 13 12 13 14 14 14 13 13 15 14 13 12 9 9 10 11 13 16 15 10 9 7 29 23 19 19 28 16 17 13 12 11 10
19 19 20 19 21 22 23 22 21 20 19 17 14 12 12 13 13 13 14 14 15 14 13 12 10 10 11 12 14 15 17 12 16 21 36 25 24 25 27 15 14 14 12 11 15
16 19 20 20 21 22 22 23 22 21 20 19 16 13 12 13 14 13 14 13 13 13 14 12 11 11 11 12 15 17 20 14 22 41 39 17 26 34 18 17 17 17 14 14 19
14 16 19 20 22 22 23 23 22 21 21 21 19 16 15 14 12 13 12 13 13 13 13 13 12 12 11 12 15 19 24 18 35 38 30 26 28 29 22 23 18 17 14 19 19
14 15 17 19 21 22 22 22 21 21 22 22 22 20 18 17 14 13 13 13 13 13 13 13 13 12 12 13 16 20 27 33 36 30 31 31 31 32 28 27 22 21 18 18 16
15 15 16 17 19 20 20 21 20 21 22 23 23 22 21 20 18 16 15 15 14 13 12 13 14 12 13 15 17 21 26 36 36 24 30 32 32 32 31 27 26 25 23 21 19
15 14 14 14 15 16 17 19 19 21 21 22 24 24 23 21 21 20 18 16 15 15 15 14 16 16 16 17 21 22 28 31 35 20 32 31 34 35 34 31 29 28 25 23 16
16 16 15 16 16 16 16 18 18 20 21 22 23 24 25 24 22 20 19 19 18 18 17 17 17 20 19 22 20 23 25 29 36 31 34 34 40 39 37 35 30 29 27 23 21
14 13 12 13 15 18 21 21 21 22 22 23 24 24 24 24 23 21 20 20 19 19 19 19 20 20 21 21 22 25 25 27 32 40 44 40 45 38 37 35 34 31 29 27 21
15 16 17 18 19 20 20 23 25 25 25 25 25 26 25 26 26 24 23 22 21 21 20 21 21 21 22 22 21 21 23 17 30 39 46 48 42 35 38 36 35 32 30 26 22
19 19 19 19 19 19 20 22 23 23 25 27 28 28 28 28 28 27 25 24 24 24 24 24 24 23 21 21 21 19 21 26 42 36 39 49 45 47 44 41 38 35 33 30 28
23 22 22 22 23 24 25 24 22 22 23 24 25 26 27 28 29 28 27 27 26 26 26 27 25 23 23 26 29 33 29 32 37 30 38 36 46 51 50 48 46 44 42 39 35
23 24 24 24 25 26 26 25 24 24 23 24 26 26 25 26 27 27 26 26 26 26 26 25 16 25 31 31 29 28 30 34 31 30 33 34 39 46 50 51 51 49 45 41 39
14 17 21 23 25 26 27 25 24 23 24 29 26 25 24 23 25 26 24 25 26 24 24 27 27 29 28 27 30 30 30 28 37 28 29 30 28 38 42 48 50 51 49 46 45
12 13 14 15 19 23 25 23 23 22 17 33 26 25 25 22 28 25 25 25 24 23 26 23 27 31 26 26 28 28 21 28 38 28 23 33 33 37 39 38 37 40 45 47 48
18 17 17 17 19 20 21 21 21 19 18 29 26 24 25 23 25 28 25 26 25 26 25 25 26 28 27 21 33 26 25 22 32 30 33 27 31 34 40 38 33 31 31 33 33
15 15 16 19 21 22 21 21 20 16 29 25 27 25 24 22 25 25 24 25 25 25 24 24 29 29 29 32 31 28 28 23 27 29 33 23 31 31 48 40 36 34 34 36 39
15 15 16 18 18 19 21 21 21 26 25 31 24 22 22 21 23 22 23 23 24 26 20 18 19 26 30 28 20 28 25 25 20 17 21 26 32 43 42 38 38 39 40 40 42
14 14 14 16 17 17 18 18 17 30 29 26 23 23 21 20 20 22 21 19 18 23 24 16 21 27 30 27 30 24 27 28 31 33 27 27 36 44 44 38 36 36 39 40 41
15 15 16 18 19 18 19 19 25 23 25 25 24 27 16 19 26 21 19 21 23 31 23 25 24 22 34 28 29 30 23 24 28 33 33 30 37 41 40 43 40 38 39 40 42
15 14 15 18 19 19 19 16 27 22 25 25 28 30 28 32 24 19 19 33 35 32 30 28 30 24 30 29 23 23 31 37 33 30 29 33 43 49 45 44 42 40 42 42 43
15 14 14 14 16 18 20 25 23 25 25 27 28 29 32 34 37 39 30 36 31 28 32 34 36 28 30 34 31 32 34 30 35 29 34 37 47 50 50 43 40 40 40 41 47
13 13 13 13 14 15 18 22 22 23 26 28 30 30 33 33 36 38 42 41 44 40 39 40 38 35 33 37 40 38 36 39 37 43 43 37 43 40 49 57 55 55 55 55 56
11 11 11 12 14 15 18 20 22 21 24 26 29 30 33 33 37 39 42 42 42 42 42 43 42 42 35 39 43 30 29 33 36 40 34 36 47 51 55 55 57 53 54 55 54
11 12 13 14 15 17 19 19 22 23 24 25 28 29 31 33 37 39 43 47 43 45 47 47 47 48 46 48 42 44 48 45 43 39 41 38 48 46 48 49 52 52 53 53 53
15 17 19 21 22 24 23 25 27 29 27 31 30 31 32 36 36 36 40 40 44 46 46 48 49 52 54 52 52 51 49 46 46 47 46 49 53 53 53 55 56 53 52 51 51
21 23 25 25 27 28 30 32 33 33 36 34 35 37 39 39 39 41 43 45 45 45 47 45 46 49 49 54 51 51 51 49 49 45 48 50 53 49 50 51 52 52 51 50 50
Wind_Direction
239 237 226 229 228 233 235 242 250 250 249 255 261 261 249 244 234 238 237 236 240 246 243 244 237 217 208 202 207 202 194 186 205 200 246 240 221 230 239 258 248 263 262 270 287
236 232 230 231 234 232 237 245 253 252 249 252 259 259 255 245 242 238 236 237 241 241 239 238 231 223 214 207 208 208 189 161 210 209 237 218 224 236 238 228 249 264 266 286 305
237 235 232 234 240 242 246 252 256 253 249 252 257 258 257 251 242 238 239 239 238 233 236 236 231 228 216 209 207 208 188 185 228 225 229 207 221 232 242 238 252 266 262 282 306
237 238 238 241 245 249 251 254 256 254 249 251 255 257 258 256 246 237 236 237 237 233 233 232 232 229 222 211 209 208 204 186 232 229 224 220 231 238 237 241 247 250 259 295 303
240 242 244 246 248 251 255 257 257 257 251 250 254 255 256 256 251 240 239 241 242 241 235 233 231 229 229 219 217 212 210 207 238 241 224 220 227 235 239 241 246 254 270 281 301
239 239 241 248 250 250 255 254 254 255 254 252 253 255 255 256 254 250 244 244 246 249 249 251 243 236 233 225 221 216 219 214 247 247 222 224 229 233 236 230 244 253 265 274 289
244 245 245 248 252 251 252 251 252 252 252 252 253 254 256 255 253 253 254 254 257 258 255 251 250 234 229 230 227 229 237 242 259 257 232 227 234 229 231 235 245 247 264 273 282
248 251 253 256 257 259 259 256 255 253 251 251 253 253 254 255 257 257 255 255 254 257 256 254 249 244 230 233 230 234 234 241 249 251 246 234 238 235 235 240 245 248 262 266 280
255 258 260 266 268 262 258 259 259 257 256 254 253 254 255 254 254 255 254 253 254 257 258 256 250 247 241 236 232 232 236 235 251 243 244 234 252 237 242 243 246 251 250 259 269
261 264 267 269 271 268 263 260 261 263 260 258 258 258 258 258 256 254 255 253 252 253 254 256 254 249 241 238 241 236 229 241 259 235 244 240 258 249 245 246 248 250 254 262 257
265 264 263 265 265 269 273 269 263 263 263 262 263 263 260 260 258 256 254 255 255 254 253 252 250 251 246 238 220 225 238 228 243 260 246 251 254 254 251 251 252 251 254 259 264
264 264 265 267 267 270 272 274 277 270 267 263 261 262 261 261 260 257 255 254 252 251 250 251 250 243 237 237 233 232 221 221 255 260 254 258 254 253 253 257 256 256 257 259 263
264 263 263 263 265 268 269 271 275 278 274 270 266 265 263 262 261 258 254 251 249 248 249 250 241 238 238 242 247 244 242 247 260 253 254 255 258 257 256 256 258 258 258 260 259
272 269 265 263 265 266 268 269 269 272 274 266 266 266 267 265 262 263 256 251 248 247 246 245 232 244 249 244 246 245 249 246 254 256 262 258 261 252 255 256 257 258 259 261 264
277 277 277 275 272 269 268 267 266 266 268 268 264 266 264 262 263 259 257 254 251 247 244 248 248 250 244 246 249 240 240 245 256 252 252 260 253 264 259 262 263 261 260 262 262
269 267 265 263 264 267 267 265 262 260 252 261 266 263 262 257 262 263 257 255 251 249 248 239 246 247 246 242 239 239 230 241 253 254 249 246 262 263 269 266 264 265 267 264 260
275 274 271 266 265 264 263 257 254 243 253 260 257 261 258 256 256 258 255 252 251 250 251 251 250 256 244 246 252 243 241 235 247 247 255 243 263 248 260 265 269 270 269 266 266
282 277 274 273 274 272 268 262 255 247 245 249 254 253 255 256 256 256 259 257 250 249 231 258 258 271 260 244 241 252 236 227 247 265 274 257 247 260 270 279 277 269 269 269 270
291 288 284 278 275 273 269 263 252 248 262 261 257 252 248 240 245 254 252 246 248 254 235 230 250 238 245 254 241 240 243 245 236 237 260 249 249 260 267 274 278 276 270 270 272
291 289 283 278 274 269 263 254 261 261 259 256 250 246 225 258 253 239 247 251 234 238 240 219 221 260 260 255 252 246 229 236 246 250 243 246 277 259 262 267 271 275 276 275 274
292 291 285 279 275 268 260 250 257 261 257 254 247 249 243 230 232 217 242 246 244 249 246 241 242 238 259 265 251 260 249 239 234 231 253 248 246 263 270 263 268 269 266 268 272
300 299 294 291 282 273 263 262 265 262 258 256 254 250 248 243 238 238 227 254 237 245 243 242 244 245 257 255 261 245 242 231 235 253 252 249 266 267 275 276 277 274 273 272 273
305 298 291 292 288 283 277 273 272 270 268 263 259 255 255 250 248 244 246 243 246 248 243 247 250 256 249 270 264 257 256 251 251 252 252 244 269 257 255 255 261 267 270 271 272
330 329 309 300 293 288 289 284 282 275 274 270 266 262 259 256 254 251 253 251 251 252 250 251 251 254 247 254 259 270 238 250 251 253 255 260 253 253 259 265 268 267 270 273 274
337 330 322 313 303 296 291 290 285 284 278 273 272 267 266 260 257 256 255 258 255 253 252 254 257 253 248 256 245 252 261 261 259 262 254 256 253 257 260 263 265 270 272 274 276
330 322 313 307 299 292 288 286 282 281 277 276 269 272 265 261 262 261 263 262 260 261 258 259 260 258 261 260 262 262 261 261 257 256 259 258 259 260 260 264 269 272 274 275 276
321 315 310 305 298 292 290 283 282 279 276 273 272 269 267 266 264 262 261 262 261 261 262 260 260 261 262 263 262 262 261 261 263 259 254 257 259 264 266 266 268 270 272 273 274